Location: Aressy
(43.2833°N, 0.3167°W)
Time: 01:44:38
(UTC+00:00)

Cosmos 1125 Rocket - Pass Details

Date: 28 January 2021
Orbit: 757 x 780 km, 74.0° (Epoch: 08 March)

Event Time Altitude Azimuth Distance (km) Brightness Sun altitude
Rises 19:00:46 0° 185° (S) 3,206 6.9 -20.5°
Reaches altitude 10° 19:03:09 10° 181° (S) 2,288 6.0 -21.0°
Maximum altitude 19:08:12 54° 105° (ESE) 929 3.5 -21.9°
Enters shadow 19:08:42 52° 83° (E) 953 3.5 -22.0°
